Time,TemperatureF,DewpointF,PressureIn,WindDirection,WindDirectionDegrees,WindSpeedMPH,WindSpeedGustMPH,Humidity,HourlyPrecipIn,Conditions,Clouds,dailyrainin,SoftwareType,DateUTC
2013-10-24 00:04:00,34.3,29.1,30.04,West,267,0.0,4.0,81,0.00,,,0.00,meteohub,2013-10-24 05:04:00,
2013-10-24 00:10:00,34.3,29.1,30.04,West,267,0.0,4.0,81,0.00,,,0.00,meteohub,2013-10-24 05:10:00,
2013-10-24 00:15:00,34.3,29.1,30.04,West,268,2.0,4.0,81,0.00,,,0.00,meteohub,2013-10-24 05:15:00,
2013-10-24 00:20:00,34.3,29.1,30.04,West,271,0.0,6.0,81,0.00,,,0.00,meteohub,2013-10-24 05:20:00,
2013-10-24 00:25:00,34.3,29.1,30.04,West,271,4.0,7.0,81,0.00,,,0.00,meteohub,2013-10-24 05:25:00,
2013-10-24 00:30:00,34.3,29.1,30.04,West,271,1.0,7.0,81,0.00,,,0.00,meteohub,2013-10-24 05:30:00,
2013-10-24 00:35:00,34.3,28.8,30.04,West,271,0.0,7.0,80,0.00,,,0.00,meteohub,2013-10-24 05:35:00,
2013-10-24 00:41:00,34.3,28.8,30.04,West,260,0.0,6.0,80,0.00,,,0.00,meteohub,2013-10-24 05:41:00,
2013-10-24 00:46:00,34.3,28.6,30.04,West,263,2.0,6.0,79,0.00,,,0.00,meteohub,2013-10-24 05:46:00,
2013-10-24 00:51:00,34.3,28.6,30.04,West,263,0.0,6.0,79,0.00,,,0.00,meteohub,2013-10-24 05:51:00,
2013-10-24 00:56:00,34.3,28.6,30.04,West,263,0.0,6.0,79,0.00,,,0.00,meteohub,2013-10-24 05:56:00,
2013-10-24 01:01:00,34.3,28.6,30.04,West,267,4.0,6.0,79,0.00,,,0.00,meteohub,2013-10-24 06:01:00,
2013-10-24 01:06:00,34.3,28.6,30.04,West,266,0.0,5.0,79,0.00,,,0.00,meteohub,2013-10-24 06:06:00,
2013-10-24 01:11:00,34.2,28.4,30.04,WNW,290,0.0,5.0,79,0.00,,,0.00,meteohub,2013-10-24 06:11:00,
2013-10-24 01:16:00,34.2,28.4,30.04,WNW,290,0.0,5.0,79,0.00,,,0.00,meteohub,2013-10-24 06:16:00,
2013-10-24 01:22:00,34.2,28.4,30.04,WNW,292,0.0,5.0,79,0.00,,,0.00,meteohub,2013-10-24 06:22:00,
2013-10-24 01:27:00,34.2,28.6,30.04,WNW,291,0.0,5.0,80,0.00,,,0.00,meteohub,2013-10-24 06:27:00,
2013-10-24 01:32:00,34.2,28.6,30.04,WNW,290,0.0,5.0,80,0.00,,,0.00,meteohub,2013-10-24 06:32:00,
2013-10-24 01:37:00,34.0,28.4,30.04,WNW,290,2.0,4.0,80,0.00,,,0.00,meteohub,2013-10-24 06:37:00,
2013-10-24 01:42:00,34.0,28.2,30.04,WNW,290,0.0,4.0,79,0.00,,,0.00,meteohub,2013-10-24 06:42:00,
2013-10-24 01:47:00,34.0,28.4,30.04,WNW,290,0.0,3.0,80,0.00,,,0.00,meteohub,2013-10-24 06:47:00,
2013-10-24 01:52:00,33.8,28.0,30.04,WNW,289,0.0,4.0,79,0.00,,,0.00,meteohub,2013-10-24 06:52:00,
2013-10-24 01:57:00,33.6,28.0,30.05,NNW,332,0.0,4.0,80,0.00,,,0.00,meteohub,2013-10-24 06:57:00,
2013-10-24 02:02:00,33.6,28.0,30.05,NNW,329,0.0,5.0,80,0.00,,,0.00,meteohub,2013-10-24 07:02:00,
2013-10-24 02:07:00,33.4,27.9,30.05,NW,308,0.0,5.0,80,0.00,,,0.00,meteohub,2013-10-24 07:07:00,
2013-10-24 02:12:00,33.4,27.9,30.05,NW,308,0.0,5.0,80,0.00,,,0.00,meteohub,2013-10-24 07:12:00,
2013-10-24 02:17:00,33.3,27.7,30.05,NW,308,0.0,5.0,80,0.00,,,0.00,meteohub,2013-10-24 07:17:00,
2013-10-24 02:22:00,33.3,27.7,30.05,WNW,300,0.0,3.0,80,0.00,,,0.00,meteohub,2013-10-24 07:22:00,
2013-10-24 02:27:00,33.3,27.7,30.05,WNW,298,3.0,3.0,80,0.00,,,0.00,meteohub,2013-10-24 07:27:00,
2013-10-24 02:32:00,33.3,27.5,30.05,WNW,298,3.0,4.0,79,0.00,,,0.00,meteohub,2013-10-24 07:32:00,
2013-10-24 02:37:00,33.3,27.7,30.05,WNW,284,3.0,4.0,80,0.00,,,0.00,meteohub,2013-10-24 07:37:00,
2013-10-24 02:42:00,33.4,27.9,30.05,West,273,1.0,7.0,80,0.00,,,0.00,meteohub,2013-10-24 07:42:00,
2013-10-24 02:47:00,33.4,27.9,30.05,West,274,1.0,7.0,80,0.00,,,0.00,meteohub,2013-10-24 07:47:00,
2013-10-24 02:52:00,33.3,27.7,30.05,West,273,2.0,7.0,80,0.00,,,0.00,meteohub,2013-10-24 07:52:00,
2013-10-24 02:57:00,33.3,27.7,30.05,West,273,0.0,4.0,80,0.00,,,0.00,meteohub,2013-10-24 07:57:00,
2013-10-24 03:02:00,33.3,28.0,30.05,West,273,0.0,4.0,81,0.00,,,0.00,meteohub,2013-10-24 08:02:00,
2013-10-24 03:07:00,33.3,28.0,30.05,West,273,0.0,4.0,81,0.00,,,0.00,meteohub,2013-10-24 08:07:00,
2013-10-24 03:12:00,33.3,28.0,30.05,West,273,0.0,4.0,81,0.00,,,0.00,meteohub,2013-10-24 08:12:00,
2013-10-24 03:17:00,33.3,28.4,30.05,West,273,0.0,4.0,82,0.00,,,0.00,meteohub,2013-10-24 08:17:00,
2013-10-24 03:22:00,33.1,28.2,30.05,West,276,0.0,5.0,82,0.00,,,0.00,meteohub,2013-10-24 08:22:00,
2013-10-24 03:27:00,33.1,28.2,30.05,West,275,0.0,5.0,82,0.00,,,0.00,meteohub,2013-10-24 08:27:00,
2013-10-24 03:32:00,33.1,27.9,30.06,West,276,0.0,5.0,81,0.00,,,0.00,meteohub,2013-10-24 08:32:00,
2013-10-24 03:37:00,33.1,28.2,30.06,West,275,2.0,4.0,82,0.00,,,0.00,meteohub,2013-10-24 08:37:00,
2013-10-24 03:42:00,33.1,28.2,30.06,West,275,0.0,4.0,82,0.00,,,0.00,meteohub,2013-10-24 08:42:00,
2013-10-24 03:47:00,33.1,27.9,30.06,West,275,0.0,4.0,81,0.00,,,0.00,meteohub,2013-10-24 08:47:00,
2013-10-24 03:52:00,33.1,27.9,30.06,West,275,0.0,4.0,81,0.00,,,0.00,meteohub,2013-10-24 08:52:00,
2013-10-24 03:57:00,33.1,27.9,30.06,West,274,0.0,4.0,81,0.00,,,0.00,meteohub,2013-10-24 08:57:00,
2013-10-24 04:02:00,33.1,27.9,30.06,West,274,2.0,4.0,81,0.00,,,0.00,meteohub,2013-10-24 09:02:00,
2013-10-24 04:07:00,33.1,27.9,30.06,West,274,2.0,4.0,81,0.00,,,0.00,meteohub,2013-10-24 09:07:00,
2013-10-24 04:12:00,32.9,27.7,30.06,West,274,0.0,4.0,81,0.00,,,0.00,meteohub,2013-10-24 09:12:00,
2013-10-24 04:17:00,32.9,27.7,30.06,West,274,1.0,4.0,81,0.00,,,0.00,meteohub,2013-10-24 09:17:00,
2013-10-24 04:22:00,32.7,27.5,30.06,West,274,0.0,4.0,81,0.00,,,0.00,meteohub,2013-10-24 09:22:00,
2013-10-24 04:27:00,32.7,27.5,30.07,West,274,0.0,3.0,81,0.00,,,0.00,meteohub,2013-10-24 09:27:00,
2013-10-24 04:32:00,32.7,27.5,30.07,West,274,1.0,4.0,81,0.00,,,0.00,meteohub,2013-10-24 09:32:00,
2013-10-24 04:37:00,32.7,27.5,30.07,West,274,2.0,4.0,81,0.00,,,0.00,meteohub,2013-10-24 09:37:00,
2013-10-24 04:42:00,32.7,27.3,30.07,West,280,1.0,5.0,80,0.00,,,0.00,meteohub,2013-10-24 09:42:00,
2013-10-24 04:47:00,32.7,27.3,30.07,West,276,2.0,6.0,80,0.00,,,0.00,meteohub,2013-10-24 09:47:00,
2013-10-24 04:52:00,32.7,27.3,30.07,West,275,0.0,7.0,80,0.00,,,0.00,meteohub,2013-10-24 09:52:00,
2013-10-24 04:57:00,32.7,27.3,30.08,West,271,0.0,7.0,80,0.00,,,0.00,meteohub,2013-10-24 09:57:00,
2013-10-24 05:02:00,32.7,27.3,30.08,West,270,2.0,8.0,80,0.00,,,0.00,meteohub,2013-10-24 10:02:00,
2013-10-24 05:07:00,32.7,27.3,30.08,West,270,0.0,8.0,80,0.00,,,0.00,meteohub,2013-10-24 10:07:00,
2013-10-24 05:12:00,32.9,27.1,30.08,West,270,0.0,8.0,79,0.00,,,0.00,meteohub,2013-10-24 10:12:00,
2013-10-24 05:17:00,32.9,27.1,30.08,West,269,1.0,5.0,79,0.00,,,0.00,meteohub,2013-10-24 10:17:00,
2013-10-24 05:22:00,32.9,27.1,30.08,West,269,2.0,5.0,79,0.00,,,0.00,meteohub,2013-10-24 10:22:00,
2013-10-24 05:27:00,33.1,27.0,30.08,West,276,0.0,6.0,78,0.00,,,0.00,meteohub,2013-10-24 10:27:00,
2013-10-24 05:32:00,33.1,27.0,30.09,West,276,0.0,7.0,78,0.00,,,0.00,meteohub,2013-10-24 10:32:00,
2013-10-24 05:37:00,33.1,27.0,30.09,West,275,0.0,7.0,78,0.00,,,0.00,meteohub,2013-10-24 10:37:00,
2013-10-24 05:42:00,33.1,26.6,30.09,WSW,256,3.0,5.0,77,0.00,,,0.00,meteohub,2013-10-24 10:42:00,
2013-10-24 05:47:00,33.3,26.8,30.09,WSW,258,0.0,7.0,77,0.00,,,0.00,meteohub,2013-10-24 10:47:00,
2013-10-24 05:52:00,33.1,26.6,30.09,West,265,0.0,7.0,77,0.00,,,0.00,meteohub,2013-10-24 10:52:00,
2013-10-24 05:57:00,33.1,27.0,30.09,West,265,0.0,7.0,78,0.00,,,0.00,meteohub,2013-10-24 10:57:00,
2013-10-24 06:02:00,33.1,27.0,30.09,West,269,3.0,7.0,78,0.00,,,0.00,meteohub,2013-10-24 11:02:00,
2013-10-24 06:07:00,33.1,27.0,30.09,West,265,3.0,5.0,78,0.00,,,0.00,meteohub,2013-10-24 11:07:00,
2013-10-24 06:12:00,33.1,26.6,30.09,West,268,0.0,5.0,77,0.00,,,0.00,meteohub,2013-10-24 11:12:00,
2013-10-24 06:17:00,33.1,26.6,30.10,West,267,0.0,5.0,77,0.00,,,0.00,meteohub,2013-10-24 11:17:00,
2013-10-24 06:22:00,33.1,26.6,30.10,West,277,0.0,6.0,77,0.00,,,0.00,meteohub,2013-10-24 11:22:00,
2013-10-24 06:27:00,33.1,26.6,30.10,West,277,5.0,7.0,77,0.00,,,0.00,meteohub,2013-10-24 11:27:00,
2013-10-24 06:32:00,32.9,26.4,30.10,West,276,0.0,7.0,77,0.00,,,0.00,meteohub,2013-10-24 11:32:00,
2013-10-24 06:37:00,32.7,26.2,30.10,West,275,2.0,7.0,77,0.00,,,0.00,meteohub,2013-10-24 11:37:00,
2013-10-24 06:42:00,32.7,26.2,30.10,West,273,0.0,7.0,77,0.00,,,0.00,meteohub,2013-10-24 11:42:00,
2013-10-24 06:47:00,32.5,26.4,30.10,West,271,1.0,7.0,78,0.00,,,0.00,meteohub,2013-10-24 11:47:00,
2013-10-24 06:52:00,32.4,26.2,30.10,West,269,1.0,7.0,78,0.00,,,0.00,meteohub,2013-10-24 11:52:00,
2013-10-24 06:57:00,32.4,26.6,30.11,West,271,0.0,5.0,79,0.00,,,0.00,meteohub,2013-10-24 11:57:00,
2013-10-24 07:02:00,32.2,26.4,30.11,West,271,1.0,5.0,79,0.00,,,0.00,meteohub,2013-10-24 12:02:00,
2013-10-24 07:07:00,31.8,26.1,30.11,West,270,0.0,5.0,79,0.00,,,0.00,meteohub,2013-10-24 12:07:00,
2013-10-24 07:12:00,31.6,26.2,30.11,West,270,0.0,5.0,80,0.00,,,0.00,meteohub,2013-10-24 12:12:00,
2013-10-24 07:17:00,31.5,26.1,30.11,West,270,0.0,5.0,80,0.00,,,0.00,meteohub,2013-10-24 12:17:00,
2013-10-24 07:22:00,31.1,25.9,30.11,West,270,0.0,4.0,81,0.00,,,0.00,meteohub,2013-10-24 12:22:00,
2013-10-24 07:27:00,30.7,25.5,30.12,West,269,1.0,4.0,81,0.00,,,0.00,meteohub,2013-10-24 12:27:00,
2013-10-24 07:32:00,30.6,25.7,30.12,West,269,0.0,4.0,82,0.00,,,0.00,meteohub,2013-10-24 12:32:00,
2013-10-24 07:37:00,30.2,25.7,30.12,West,269,1.0,4.0,83,0.00,,,0.00,meteohub,2013-10-24 12:37:00,
2013-10-24 07:42:00,30.0,25.5,30.12,West,269,0.0,3.0,83,0.00,,,0.00,meteohub,2013-10-24 12:42:00,
2013-10-24 07:47:00,29.7,25.3,30.12,West,269,0.0,3.0,84,0.00,,,0.00,meteohub,2013-10-24 12:47:00,
2013-10-24 07:52:00,29.7,25.3,30.12,West,269,0.0,5.0,84,0.00,,,0.00,meteohub,2013-10-24 12:52:00,
2013-10-24 07:57:00,29.5,25.5,30.13,West,269,0.0,5.0,85,0.00,,,0.00,meteohub,2013-10-24 12:57:00,
2013-10-24 08:02:00,29.7,25.7,30.13,West,269,0.0,5.0,85,0.00,,,0.00,meteohub,2013-10-24 13:02:00,
2013-10-24 08:07:00,30.0,26.1,30.13,West,265,0.0,4.0,85,0.00,,,0.00,meteohub,2013-10-24 13:07:00,
2013-10-24 08:12:00,30.6,26.2,30.13,West,265,3.0,6.0,84,0.00,,,0.00,meteohub,2013-10-24 13:12:00,
2013-10-24 08:17:00,30.9,26.6,30.13,West,265,1.0,6.0,84,0.00,,,0.00,meteohub,2013-10-24 13:17:00,
2013-10-24 08:22:00,31.5,27.0,30.14,West,266,0.0,6.0,83,0.00,,,0.00,meteohub,2013-10-24 13:22:00,
2013-10-24 08:27:00,31.8,27.0,30.14,West,268,2.0,4.0,82,0.00,,,0.00,meteohub,2013-10-24 13:27:00,
2013-10-24 08:32:00,32.4,27.1,30.14,West,268,3.0,4.0,81,0.00,,,0.00,meteohub,2013-10-24 13:32:00,
2013-10-24 08:37:00,32.7,27.3,30.14,West,260,0.0,6.0,80,0.00,,,0.00,meteohub,2013-10-24 13:37:00,
2013-10-24 08:42:00,33.3,27.5,30.14,West,274,5.0,6.0,79,0.00,,,0.00,meteohub,2013-10-24 13:42:00,
2013-10-24 08:47:00,33.6,27.9,30.14,WNW,282,3.0,8.0,79,0.00,,,0.00,meteohub,2013-10-24 13:47:00,
2013-10-24 08:52:00,34.0,27.9,30.14,West,274,0.0,8.0,78,0.00,,,0.00,meteohub,2013-10-24 13:52:00,
2013-10-24 08:57:00,34.5,28.4,30.14,WNW,286,3.0,8.0,78,0.00,,,0.00,meteohub,2013-10-24 13:57:00,
2013-10-24 09:02:00,34.9,28.4,30.14,West,261,0.0,7.0,77,0.00,,,0.00,meteohub,2013-10-24 14:02:00,
2013-10-24 09:07:00,35.2,28.8,30.14,NW,310,1.0,7.0,77,0.00,,,0.00,meteohub,2013-10-24 14:07:00,
2013-10-24 09:12:00,35.8,28.9,30.14,West,259,2.0,7.0,76,0.00,,,0.00,meteohub,2013-10-24 14:12:00,
2013-10-24 09:17:00,36.3,28.8,30.15,WNW,302,2.0,10.0,74,0.00,,,0.00,meteohub,2013-10-24 14:17:00,
2013-10-24 09:22:00,36.9,28.8,30.15,NNW,341,0.0,10.0,72,0.00,,,0.00,meteohub,2013-10-24 14:22:00,
2013-10-24 09:27:00,37.2,29.1,30.15,NW,315,2.0,10.0,72,0.00,,,0.00,meteohub,2013-10-24 14:27:00,
2013-10-24 09:32:00,37.9,29.7,30.15,West,275,0.0,9.0,72,0.00,,,0.00,meteohub,2013-10-24 14:32:00,
2013-10-24 09:37:00,38.1,29.1,30.15,WNW,283,1.0,10.0,70,0.00,,,0.00,meteohub,2013-10-24 14:37:00,
2013-10-24 09:42:00,37.9,29.1,30.15,West,271,1.0,10.0,70,0.00,,,0.00,meteohub,2013-10-24 14:42:00,
2013-10-24 09:47:00,37.9,29.1,30.16,WSW,244,5.0,10.0,70,0.00,,,0.00,meteohub,2013-10-24 14:47:00,
2013-10-24 09:52:00,37.9,29.1,30.16,WNW,302,2.0,9.0,70,0.00,,,0.00,meteohub,2013-10-24 14:52:00,
2013-10-24 09:57:00,37.9,29.1,30.16,West,261,4.0,8.0,70,0.00,,,0.00,meteohub,2013-10-24 14:57:00,
2013-10-24 10:02:00,38.1,29.1,30.16,West,269,0.0,8.0,70,0.00,,,0.00,meteohub,2013-10-24 15:02:00,
2013-10-24 10:07:00,37.9,28.8,30.16,SW,225,6.0,6.0,69,0.00,,,0.00,meteohub,2013-10-24 15:07:00,
2013-10-24 10:12:00,37.8,29.1,30.16,NW,304,0.0,10.0,71,0.00,,,0.00,meteohub,2013-10-24 15:12:00,
2013-10-24 10:17:00,38.1,29.8,30.17,West,260,5.0,10.0,72,0.00,,,0.00,meteohub,2013-10-24 15:17:00,
2013-10-24 10:22:00,37.9,29.1,30.17,NNW,329,0.0,10.0,70,0.00,,,0.00,meteohub,2013-10-24 15:22:00,
2013-10-24 10:27:00,37.8,28.9,30.17,West,270,0.0,12.0,70,0.00,,,0.00,meteohub,2013-10-24 15:27:00,
2013-10-24 10:33:00,37.8,28.9,30.17,West,271,0.0,12.0,70,0.00,,,0.00,meteohub,2013-10-24 15:33:00,
2013-10-24 10:38:00,37.9,29.1,30.17,West,266,2.0,12.0,70,0.00,,,0.00,meteohub,2013-10-24 15:38:00,
2013-10-24 10:43:00,37.8,28.6,30.17,West,262,3.0,7.0,69,0.00,,,0.00,meteohub,2013-10-24 15:43:00,
2013-10-24 10:48:00,37.9,29.3,30.17,West,263,0.0,11.0,71,0.00,,,0.00,meteohub,2013-10-24 15:48:00,
2013-10-24 10:53:00,38.7,29.7,30.17,WNW,297,0.0,11.0,70,0.00,,,0.00,meteohub,2013-10-24 15:53:00,
2013-10-24 10:58:00,38.8,29.8,30.18,West,281,0.0,11.0,70,0.00,,,0.00,meteohub,2013-10-24 15:58:00,
2013-10-24 11:03:00,38.7,29.7,30.18,NW,313,1.0,10.0,70,0.00,,,0.00,meteohub,2013-10-24 16:03:00,
2013-10-24 11:08:00,38.8,30.2,30.18,West,270,4.0,10.0,71,0.00,,,0.00,meteohub,2013-10-24 16:08:00,
2013-10-24 11:13:00,38.7,29.7,30.18,WNW,282,1.0,10.0,70,0.00,,,0.00,meteohub,2013-10-24 16:13:00,
2013-10-24 11:18:00,38.8,29.8,30.18,NW,321,1.0,9.0,70,0.00,,,0.00,meteohub,2013-10-24 16:18:00,
2013-10-24 11:24:00,38.8,29.8,30.18,WSW,244,1.0,10.0,70,0.00,,,0.00,meteohub,2013-10-24 16:24:00,
2013-10-24 11:29:00,38.8,30.2,30.19,West,278,0.0,10.0,71,0.00,,,0.00,meteohub,2013-10-24 16:29:00,
2013-10-24 11:34:00,38.8,30.2,30.19,West,261,1.0,10.0,71,0.00,,,0.00,meteohub,2013-10-24 16:34:00,
2013-10-24 11:39:00,39.0,30.4,30.19,NW,317,2.0,10.0,71,0.00,,,0.00,meteohub,2013-10-24 16:39:00,
2013-10-24 11:44:00,39.4,30.7,30.19,WSW,251,6.0,10.0,71,0.00,,,0.00,meteohub,2013-10-24 16:44:00,
2013-10-24 11:49:00,39.4,30.4,30.19,West,275,4.0,10.0,70,0.00,,,0.00,meteohub,2013-10-24 16:49:00,
2013-10-24 11:54:00,39.2,30.2,30.19,WSW,252,3.0,6.0,70,0.00,,,0.00,meteohub,2013-10-24 16:54:00,
2013-10-24 12:00:00,39.6,30.9,30.19,West,269,3.0,6.0,71,0.00,,,0.00,meteohub,2013-10-24 17:00:00,
2013-10-24 12:05:00,39.7,30.4,30.19,NNW,329,0.0,9.0,69,0.00,,,0.00,meteohub,2013-10-24 17:05:00,
2013-10-24 12:10:00,40.1,30.7,30.19,West,275,0.0,9.0,69,0.00,,,0.00,meteohub,2013-10-24 17:10:00,
2013-10-24 12:15:00,40.5,30.7,30.19,West,276,5.0,9.0,68,0.00,,,0.00,meteohub,2013-10-24 17:15:00,
2013-10-24 12:20:00,41.0,31.6,30.19,WSW,252,2.0,9.0,69,0.00,,,0.00,meteohub,2013-10-24 17:20:00,
2013-10-24 12:25:00,41.4,31.3,30.19,West,259,0.0,9.0,67,0.00,,,0.00,meteohub,2013-10-24 17:25:00,
2013-10-24 12:30:00,41.0,30.9,30.19,WSW,246,1.0,14.0,67,0.00,,,0.00,meteohub,2013-10-24 17:30:00,
2013-10-24 12:36:00,40.8,30.7,30.19,West,270,5.0,14.0,67,0.00,,,0.00,meteohub,2013-10-24 17:36:00,
2013-10-24 12:41:00,40.8,31.5,30.19,West,276,2.0,12.0,69,0.00,,,0.00,meteohub,2013-10-24 17:41:00,
2013-10-24 12:46:00,40.5,30.7,30.19,WNW,301,0.0,12.0,68,0.00,,,0.00,meteohub,2013-10-24 17:46:00,
2013-10-24 12:51:00,40.5,31.1,30.19,WNW,286,1.0,12.0,69,0.00,,,0.00,meteohub,2013-10-24 17:51:00,
2013-10-24 12:56:00,40.3,30.6,30.19,ENE,72,0.0,9.0,68,0.00,,,0.00,meteohub,2013-10-24 17:56:00,
2013-10-24 13:01:00,40.3,30.2,30.19,West,280,1.0,10.0,67,0.00,,,0.00,meteohub,2013-10-24 18:01:00,
2013-10-24 13:06:00,40.5,31.5,30.19,West,269,2.0,10.0,70,0.00,,,0.00,meteohub,2013-10-24 18:06:00,
2013-10-24 13:12:00,41.0,31.3,30.19,West,273,2.0,10.0,68,0.00,,,0.00,meteohub,2013-10-24 18:12:00,
2013-10-24 13:17:00,40.8,30.4,30.19,West,261,4.0,10.0,66,0.00,,,0.00,meteohub,2013-10-24 18:17:00,
2013-10-24 13:22:00,40.8,30.4,30.19,West,261,2.0,8.0,66,0.00,,,0.00,meteohub,2013-10-24 18:22:00,
2013-10-24 13:27:00,40.8,30.7,30.19,NW,321,1.0,8.0,67,0.00,,,0.00,meteohub,2013-10-24 18:27:00,
2013-10-24 13:32:00,40.8,30.4,30.19,NW,313,1.0,8.0,66,0.00,,,0.00,meteohub,2013-10-24 18:32:00,
2013-10-24 13:37:00,41.2,30.7,30.19,West,261,7.0,7.0,66,0.00,,,0.00,meteohub,2013-10-24 18:37:00,
2013-10-24 13:42:00,41.9,30.6,30.19,WSW,254,0.0,9.0,64,0.00,,,0.00,meteohub,2013-10-24 18:42:00,
2013-10-24 13:47:00,42.3,30.6,30.19,WSW,249,0.0,9.0,63,0.00,,,0.00,meteohub,2013-10-24 18:47:00,
2013-10-24 13:52:00,42.6,30.9,30.19,West,275,0.0,9.0,63,0.00,,,0.00,meteohub,2013-10-24 18:52:00,
2013-10-24 13:57:00,42.4,30.4,30.19,WNW,289,5.0,8.0,62,0.00,,,0.00,meteohub,2013-10-24 18:57:00,
2013-10-24 14:02:00,42.3,30.2,30.19,NW,309,7.0,12.0,62,0.00,,,0.00,meteohub,2013-10-24 19:02:00,
2013-10-24 14:08:00,41.7,29.3,30.19,NW,306,0.0,12.0,61,0.00,,,0.00,meteohub,2013-10-24 19:08:00,
2013-10-24 14:13:00,41.5,29.1,30.19,NW,317,1.0,12.0,61,0.00,,,0.00,meteohub,2013-10-24 19:13:00,
2013-10-24 14:18:00,41.4,29.3,30.19,West,264,1.0,8.0,62,0.00,,,0.00,meteohub,2013-10-24 19:18:00,
2013-10-24 14:23:00,42.1,30.0,30.19,WSW,241,0.0,7.0,62,0.00,,,0.00,meteohub,2013-10-24 19:23:00,
2013-10-24 14:28:00,42.4,30.7,30.19,NW,306,2.0,8.0,63,0.00,,,0.00,meteohub,2013-10-24 19:28:00,
2013-10-24 14:33:00,42.3,30.2,30.19,NW,311,0.0,9.0,62,0.00,,,0.00,meteohub,2013-10-24 19:33:00,
2013-10-24 14:39:00,41.7,29.3,30.19,NNW,344,1.0,9.0,61,0.00,,,0.00,meteohub,2013-10-24 19:39:00,
2013-10-24 14:44:00,41.9,28.9,30.19,WSW,250,2.0,9.0,60,0.00,,,0.00,meteohub,2013-10-24 19:44:00,
2013-10-24 14:49:00,42.3,28.9,30.19,West,269,2.0,8.0,59,0.00,,,0.00,meteohub,2013-10-24 19:49:00,
2013-10-24 14:54:00,42.4,29.1,30.19,NW,324,3.0,8.0,59,0.00,,,0.00,meteohub,2013-10-24 19:54:00,
2013-10-24 14:59:00,42.3,28.9,30.20,WNW,298,3.0,8.0,59,0.00,,,0.00,meteohub,2013-10-24 19:59:00,
2013-10-24 15:04:00,42.3,28.6,30.20,West,281,0.0,7.0,58,0.00,,,0.00,meteohub,2013-10-24 20:04:00,
2013-10-24 15:10:00,42.3,28.9,30.20,WNW,284,1.0,8.0,59,0.00,,,0.00,meteohub,2013-10-24 20:10:00,
2013-10-24 15:15:00,42.1,28.8,30.20,NW,304,0.0,8.0,59,0.00,,,0.00,meteohub,2013-10-24 20:15:00,
2013-10-24 15:20:00,41.9,28.2,30.20,West,263,1.0,9.0,58,0.00,,,0.00,meteohub,2013-10-24 20:20:00,
2013-10-24 15:25:00,41.9,28.6,30.20,West,267,1.0,9.0,59,0.00,,,0.00,meteohub,2013-10-24 20:25:00,
2013-10-24 15:30:00,42.1,28.8,30.20,West,271,1.0,9.0,59,0.00,,,0.00,meteohub,2013-10-24 20:30:00,
2013-10-24 15:35:00,42.1,28.8,30.21,WNW,288,2.0,8.0,59,0.00,,,0.00,meteohub,2013-10-24 20:35:00,
2013-10-24 15:40:00,42.3,29.3,30.21,West,263,9.0,9.0,60,0.00,,,0.00,meteohub,2013-10-24 20:40:00,
2013-10-24 15:46:00,42.4,28.8,30.21,WNW,289,1.0,14.0,58,0.00,,,0.00,meteohub,2013-10-24 20:46:00,
2013-10-24 15:51:00,42.3,28.0,30.21,West,276,5.0,14.0,57,0.00,,,0.00,meteohub,2013-10-24 20:51:00,
2013-10-24 15:56:00,41.5,27.9,30.21,West,269,5.0,14.0,58,0.00,,,0.00,meteohub,2013-10-24 20:56:00,
2013-10-24 16:01:00,41.4,28.6,30.21,West,271,0.0,12.0,60,0.00,,,0.00,meteohub,2013-10-24 21:01:00,
2013-10-24 16:06:00,41.2,28.8,30.21,West,267,8.0,12.0,61,0.00,,,0.00,meteohub,2013-10-24 21:06:00,
2013-10-24 16:12:00,41.0,28.6,30.21,West,259,3.0,12.0,61,0.00,,,0.00,meteohub,2013-10-24 21:12:00,
2013-10-24 16:17:00,41.0,28.6,30.21,WSW,253,0.0,8.0,61,0.00,,,0.00,meteohub,2013-10-24 21:17:00,
2013-10-24 16:22:00,41.2,29.1,30.21,WSW,256,0.0,8.0,62,0.00,,,0.00,meteohub,2013-10-24 21:22:00,
2013-10-24 16:27:00,41.2,28.8,30.22,West,263,0.0,7.0,61,0.00,,,0.00,meteohub,2013-10-24 21:27:00,
2013-10-24 16:32:00,41.0,28.6,30.22,WSW,256,4.0,4.0,61,0.00,,,0.00,meteohub,2013-10-24 21:32:00,
2013-10-24 16:37:00,41.0,28.6,30.22,West,264,0.0,9.0,61,0.00,,,0.00,meteohub,2013-10-24 21:37:00,
2013-10-24 16:42:00,41.2,29.1,30.22,West,278,0.0,9.0,62,0.00,,,0.00,meteohub,2013-10-24 21:42:00,
2013-10-24 16:47:00,42.1,30.0,30.22,West,269,0.0,9.0,62,0.00,,,0.00,meteohub,2013-10-24 21:47:00,
2013-10-24 16:52:00,42.6,29.7,30.22,West,275,3.0,6.0,60,0.00,,,0.00,meteohub,2013-10-24 21:52:00,
2013-10-24 16:57:00,42.3,28.6,30.22,West,271,1.0,9.0,58,0.00,,,0.00,meteohub,2013-10-24 21:57:00,
2013-10-24 17:02:00,41.4,28.6,30.22,West,265,0.0,9.0,60,0.00,,,0.00,meteohub,2013-10-24 22:02:00,
2013-10-24 17:07:00,40.6,27.9,30.22,West,277,0.0,9.0,60,0.00,,,0.00,meteohub,2013-10-24 22:07:00,
2013-10-24 17:12:00,40.5,28.0,30.22,WSW,256,0.0,6.0,61,0.00,,,0.00,meteohub,2013-10-24 22:12:00,
2013-10-24 17:17:00,40.1,28.0,30.22,West,260,0.0,6.0,62,0.00,,,0.00,meteohub,2013-10-24 22:17:00,
2013-10-24 17:22:00,39.9,28.4,30.22,WSW,252,1.0,6.0,63,0.00,,,0.00,meteohub,2013-10-24 22:22:00,
2013-10-24 17:27:00,39.7,28.6,30.22,WSW,252,0.0,7.0,64,0.00,,,0.00,meteohub,2013-10-24 22:27:00,
2013-10-24 17:32:00,39.6,28.8,30.23,WSW,253,0.0,7.0,65,0.00,,,0.00,meteohub,2013-10-24 22:32:00,
2013-10-24 17:37:00,39.4,28.9,30.23,WSW,253,1.0,2.0,66,0.00,,,0.00,meteohub,2013-10-24 22:37:00,
2013-10-24 17:42:00,38.8,28.8,30.23,WSW,252,0.0,2.0,67,0.00,,,0.00,meteohub,2013-10-24 22:42:00,
2013-10-24 17:47:00,38.7,28.6,30.23,West,263,0.0,5.0,67,0.00,,,0.00,meteohub,2013-10-24 22:47:00,
2013-10-24 17:52:00,38.7,28.6,30.23,West,263,1.0,5.0,67,0.00,,,0.00,meteohub,2013-10-24 22:52:00,
2013-10-24 17:57:00,38.7,28.6,30.23,West,263,0.0,5.0,67,0.00,,,0.00,meteohub,2013-10-24 22:57:00,
2013-10-24 18:02:00,38.7,28.9,30.23,WSW,257,0.0,4.0,68,0.00,,,0.00,meteohub,2013-10-24 23:02:00,
2013-10-24 18:07:00,38.5,28.8,30.24,West,261,1.0,4.0,68,0.00,,,0.00,meteohub,2013-10-24 23:07:00,
2013-10-24 18:12:00,38.3,28.9,30.24,West,261,0.0,4.0,69,0.00,,,0.00,meteohub,2013-10-24 23:12:00,
2013-10-24 18:17:00,38.1,29.1,30.24,West,260,0.0,3.0,70,0.00,,,0.00,meteohub,2013-10-24 23:17:00,
2013-10-24 18:22:00,37.8,28.9,30.24,West,260,0.0,2.0,70,0.00,,,0.00,meteohub,2013-10-24 23:22:00,
2013-10-24 18:27:00,37.6,29.1,30.24,West,260,0.0,2.0,71,0.00,,,0.00,meteohub,2013-10-24 23:27:00,
2013-10-24 18:32:00,37.0,28.9,30.24,West,260,0.0,2.0,72,0.00,,,0.00,meteohub,2013-10-24 23:32:00,
2013-10-24 18:37:00,36.9,28.9,30.24,West,260,0.0,1.0,73,0.00,,,0.00,meteohub,2013-10-24 23:37:00,
2013-10-24 18:42:00,36.7,28.8,30.25,West,260,0.0,1.0,73,0.00,,,0.00,meteohub,2013-10-24 23:42:00,
2013-10-24 18:47:00,36.5,28.8,30.25,West,260,0.0,1.0,73,0.00,,,0.00,meteohub,2013-10-24 23:47:00,
2013-10-24 18:52:00,36.3,28.8,30.25,West,260,0.0,1.0,74,0.00,,,0.00,meteohub,2013-10-24 23:52:00,
2013-10-24 18:57:00,36.1,28.6,30.25,West,260,0.0,0.0,74,0.00,,,0.00,meteohub,2013-10-24 23:57:00,
2013-10-24 19:02:00,36.0,28.8,30.25,West,260,0.0,0.0,75,0.00,,,0.00,meteohub,2013-10-25 00:02:00,
2013-10-24 19:07:00,36.0,28.8,30.25,West,260,0.0,0.0,75,0.00,,,0.00,meteohub,2013-10-25 00:07:00,
2013-10-24 19:12:00,36.1,28.9,30.25,West,260,1.0,2.0,75,0.00,,,0.00,meteohub,2013-10-25 00:12:00,
2013-10-24 19:17:00,36.3,29.1,30.25,West,260,0.0,2.0,75,0.00,,,0.00,meteohub,2013-10-25 00:17:00,
2013-10-24 19:22:00,36.5,29.3,30.25,West,260,0.0,2.0,75,0.00,,,0.00,meteohub,2013-10-25 00:22:00,
2013-10-24 19:27:00,36.7,29.5,30.26,West,260,0.0,3.0,75,0.00,,,0.00,meteohub,2013-10-25 00:27:00,
2013-10-24 19:32:00,36.7,29.1,30.26,West,260,2.0,3.0,74,0.00,,,0.00,meteohub,2013-10-25 00:32:00,
2013-10-24 19:37:00,36.9,29.3,30.26,West,260,0.0,3.0,74,0.00,,,0.00,meteohub,2013-10-25 00:37:00,
2013-10-24 19:42:00,36.7,29.1,30.26,West,260,0.0,2.0,74,0.00,,,0.00,meteohub,2013-10-25 00:42:00,
2013-10-24 19:47:00,36.7,29.1,30.26,West,260,0.0,2.0,74,0.00,,,0.00,meteohub,2013-10-25 00:47:00,
2013-10-24 19:52:00,36.3,29.1,30.26,West,260,0.0,2.0,75,0.00,,,0.00,meteohub,2013-10-25 00:52:00,
2013-10-24 19:57:00,36.1,28.9,30.27,West,260,0.0,2.0,75,0.00,,,0.00,meteohub,2013-10-25 00:57:00,
2013-10-24 20:02:00,36.1,29.3,30.27,West,260,0.0,1.0,76,0.00,,,0.00,meteohub,2013-10-25 01:02:00,
2013-10-24 20:07:00,36.0,29.1,30.27,West,260,0.0,1.0,76,0.00,,,0.00,meteohub,2013-10-25 01:07:00,
2013-10-24 20:12:00,35.6,28.8,30.27,West,260,0.0,1.0,76,0.00,,,0.00,meteohub,2013-10-25 01:12:00,
2013-10-24 20:17:00,35.6,29.1,30.27,West,260,0.0,2.0,77,0.00,,,0.00,meteohub,2013-10-25 01:17:00,
2013-10-24 20:22:00,35.8,29.3,30.27,West,260,0.0,2.0,77,0.00,,,0.00,meteohub,2013-10-25 01:22:00,
2013-10-24 20:27:00,35.8,28.9,30.27,West,260,0.0,2.0,76,0.00,,,0.00,meteohub,2013-10-25 01:27:00,
2013-10-24 20:32:00,36.0,28.8,30.27,West,271,2.0,3.0,75,0.00,,,0.00,meteohub,2013-10-25 01:32:00,
2013-10-24 20:37:00,36.3,28.8,30.27,West,265,0.0,7.0,74,0.00,,,0.00,meteohub,2013-10-25 01:37:00,
2013-10-24 20:42:00,36.3,28.6,30.27,West,265,0.0,7.0,73,0.00,,,0.00,meteohub,2013-10-25 01:42:00,
2013-10-24 20:47:00,36.1,28.4,30.27,West,265,0.0,6.0,73,0.00,,,0.00,meteohub,2013-10-25 01:47:00,
2013-10-24 20:52:00,36.0,28.2,30.28,West,265,0.0,3.0,73,0.00,,,0.00,meteohub,2013-10-25 01:52:00,
2013-10-24 20:57:00,35.8,28.0,30.28,West,265,0.0,3.0,73,0.00,,,0.00,meteohub,2013-10-25 01:57:00,
2013-10-24 21:02:00,35.4,28.0,30.28,West,265,0.0,3.0,74,0.00,,,0.00,meteohub,2013-10-25 02:02:00,
2013-10-24 21:08:00,35.2,27.9,30.28,West,265,0.0,2.0,74,0.00,,,0.00,meteohub,2013-10-25 02:08:00,
2013-10-24 21:13:00,35.1,27.9,30.28,West,265,3.0,3.0,75,0.00,,,0.00,meteohub,2013-10-25 02:13:00,
2013-10-24 21:18:00,35.1,27.9,30.28,West,263,0.0,3.0,75,0.00,,,0.00,meteohub,2013-10-25 02:18:00,
2013-10-24 21:23:00,35.1,27.9,30.28,West,263,0.0,3.0,75,0.00,,,0.00,meteohub,2013-10-25 02:23:00,
2013-10-24 21:28:00,34.9,27.7,30.29,West,263,0.0,4.0,75,0.00,,,0.00,meteohub,2013-10-25 02:28:00,
2013-10-24 21:34:00,34.5,27.7,30.29,West,263,1.0,4.0,76,0.00,,,0.00,meteohub,2013-10-25 02:34:00,
2013-10-24 21:39:00,34.3,27.5,30.29,West,263,0.0,3.0,76,0.00,,,0.00,meteohub,2013-10-25 02:39:00,
2013-10-24 21:44:00,34.0,27.5,30.29,West,263,1.0,3.0,77,0.00,,,0.00,meteohub,2013-10-25 02:44:00,
2013-10-24 21:49:00,33.6,27.1,30.29,West,263,0.0,3.0,77,0.00,,,0.00,meteohub,2013-10-25 02:49:00,
2013-10-24 21:54:00,33.4,27.3,30.29,West,263,0.0,2.0,78,0.00,,,0.00,meteohub,2013-10-25 02:54:00,
2013-10-24 21:59:00,33.4,27.3,30.30,West,263,0.0,3.0,78,0.00,,,0.00,meteohub,2013-10-25 02:59:00,
2013-10-24 22:05:00,33.3,27.1,30.30,West,263,0.0,3.0,78,0.00,,,0.00,meteohub,2013-10-25 03:05:00,
2013-10-24 22:10:00,33.1,27.3,30.30,West,263,0.0,2.0,79,0.00,,,0.00,meteohub,2013-10-25 03:10:00,
2013-10-24 22:15:00,32.7,27.0,30.30,West,263,0.0,2.0,79,0.00,,,0.00,meteohub,2013-10-25 03:15:00,
2013-10-24 22:20:00,32.5,27.1,30.30,West,263,0.0,4.0,80,0.00,,,0.00,meteohub,2013-10-25 03:20:00,
2013-10-24 22:25:00,32.4,27.0,30.30,West,263,0.0,4.0,80,0.00,,,0.00,meteohub,2013-10-25 03:25:00,
2013-10-24 22:30:00,32.4,27.0,30.30,West,263,0.0,2.0,80,0.00,,,0.00,meteohub,2013-10-25 03:30:00,
2013-10-24 22:36:00,32.0,26.8,30.30,West,263,0.0,2.0,81,0.00,,,0.00,meteohub,2013-10-25 03:36:00,
2013-10-24 22:41:00,31.6,26.4,30.30,West,263,0.0,2.0,81,0.00,,,0.00,meteohub,2013-10-25 03:41:00,
2013-10-24 22:46:00,31.3,26.1,30.30,West,263,0.0,1.0,81,0.00,,,0.00,meteohub,2013-10-25 03:46:00,
2013-10-24 22:51:00,30.9,25.7,30.30,West,263,0.0,1.0,81,0.00,,,0.00,meteohub,2013-10-25 03:51:00,
2013-10-24 22:56:00,30.6,25.3,30.30,West,263,0.0,0.0,81,0.00,,,0.00,meteohub,2013-10-25 03:56:00,
2013-10-24 23:01:00,30.0,25.0,30.30,West,263,0.0,0.0,81,0.00,,,0.00,meteohub,2013-10-25 04:01:00,
2013-10-24 23:02:00,29.8,24.8,30.30,West,263,0.0,0.0,81,0.00,,,0.00,meteohub,2013-10-25 04:02:00,
2013-10-24 23:04:00,29.7,24.6,30.30,West,263,0.0,0.0,81,0.00,,,0.00,meteohub,2013-10-25 04:04:00,
2013-10-24 23:05:00,29.5,24.4,30.30,West,263,0.0,0.0,81,0.00,,,0.00,meteohub,2013-10-25 04:05:00,
2013-10-24 23:08:00,29.3,24.3,30.31,West,263,0.0,0.0,81,0.00,,,0.00,meteohub,2013-10-25 04:08:00,
2013-10-24 23:13:00,28.8,23.9,30.31,West,263,0.0,0.0,82,0.00,,,0.00,meteohub,2013-10-25 04:13:00,
2013-10-24 23:18:00,28.2,23.7,30.31,West,263,0.0,0.0,83,0.00,,,0.00,meteohub,2013-10-25 04:18:00,
2013-10-24 23:23:00,27.9,23.7,30.30,West,263,0.0,0.0,84,0.00,,,0.00,meteohub,2013-10-25 04:23:00,
2013-10-24 23:28:00,27.3,23.2,30.31,West,263,0.0,0.0,84,0.00,,,0.00,meteohub,2013-10-25 04:28:00,
2013-10-24 23:33:00,27.0,23.0,30.31,West,263,0.0,0.0,85,0.00,,,0.00,meteohub,2013-10-25 04:33:00,
2013-10-24 23:38:00,26.8,22.8,30.31,West,263,0.0,0.0,85,0.00,,,0.00,meteohub,2013-10-25 04:38:00,
2013-10-24 23:44:00,26.4,22.8,30.31,West,263,0.0,0.0,86,0.00,,,0.00,meteohub,2013-10-25 04:44:00,
2013-10-24 23:49:00,26.2,22.8,30.31,West,263,0.0,0.0,87,0.00,,,0.00,meteohub,2013-10-25 04:49:00,
2013-10-24 23:54:00,26.2,22.8,30.31,West,263,0.0,0.0,87,0.00,,,0.00,meteohub,2013-10-25 04:54:00,
2013-10-24 23:59:00,26.1,23.0,30.31,West,263,0.0,0.0,88,0.00,,,0.00,meteohub,2013-10-25 04:59:00,